Flag for U.S.A. Weather past 2 weeks in Montgomery, Alabama, U.S.A.

Now
92 °F

Sunny.


Feels Like: 97 °F
Forecast: 71 / 95 °F
Wind: 5 mph from Northwest

Location: Maxwell Air Force Base / Montgomery

Current Time: Aug 3, 2015 at 12:53:03 PM

Latest Report: Aug 3, 2015 at 11:58 AM


Visibility: 10 mi

Pressure: 29.91 "Hg

Humidity: 49%

Dew point: 70 °F

Location of MontgomeryLocation

Historic Weather in Montgomery — Graph

°F

Montgomery temperature yesterday

Maximum temperature yesterday: 96 °F (at 4:58 PM)
Minimum temperature yesterday: 73 °F (at 5:58 AM)
Average temperature yesterday: 84 °F

Past Weeks' High & Low Weather Summary

 TemperatureHumidityPressure
High98 °F (Jul 30, 2:58 PM)100% (Jul 20, 3:03 AM)30.03 "Hg (Jul 20, 3:03 AM)
Low71 °F (Aug 3, 4:58 AM)30% (Aug 2, 4:58 PM)29.83 "Hg (Jul 21, 3:58 PM)
Average83 °F75%29.93 "Hg
* Reported Jul 19 11:58 AM — Aug 3 11:58 AM, Montgomery, Weather by CustomWeather, © 2015

Note: Actual official high and low records may vary slightly from our data, if they occured in-between our weather recording intervals... More about our weather records

Advertising

Montgomery weather history for previous 24 hours

 ConditionsComfort  
Time TempWeatherWind HumidityBarometerVisibility
11:58 AM
Mon, Aug 3
92 °FSunny.5 mph49%29.91 "Hg10 mi
10:58 AM89 °FSunny.3 mph56%29.92 "Hg10 mi
9:58 AM85 °FSunny.5 mph65%29.92 "Hg10 mi
8:58 AM80 °FSunny.1 mph70%29.91 "Hg10 mi
7:58 AM77 °FSunny.5 mph68%29.92 "Hg9 mi
6:58 AM72 °FClear.2 mph75%29.90 "Hg10 mi
5:58 AM72 °FClear.5 mph74%29.87 "Hg9 mi
4:58 AM71 °FClear.No wind79%29.85 "Hg10 mi
3:58 AM72 °FClear.2 mph76%29.84 "Hg10 mi
2:58 AM74 °FClear.No wind78%29.83 "Hg10 mi
1:58 AM73 °FClear.No wind91%29.84 "Hg10 mi
12:58 AM74 °FClear.No wind89%29.85 "Hg10 mi
11:58 PM
Sun, Aug 2
77 °FClear.1 mph80%29.85 "Hg10 mi
10:58 PM76 °FPassing clouds.2 mph87%29.86 "Hg10 mi
9:58 PM78 °FClear.1 mph83%29.86 "Hg10 mi
8:58 PM81 °FClear.3 mph71%29.85 "Hg10 mi
7:58 PM86 °FSunny.1 mph61%29.84 "Hg10 mi
6:58 PM93 °FSunny.1 mph40%29.83 "Hg10 mi
5:58 PM95 °FSunny.3 mph31%29.83 "Hg10 mi
4:58 PM96 °FSunny.3 mph30%29.85 "Hg10 mi
3:58 PM96 °FSunny.5 mph32%29.85 "Hg10 mi
2:58 PM96 °FSunny.3 mph34%29.86 "Hg10 mi
1:58 PM95 °FSunny.7 mph36%29.89 "Hg10 mi
12:58 PM94 °FSunny.7 mph36%29.90 "Hg10 mi
Weather by CustomWeather, © 2015

See weather overviewHow to use our weather pages